Tracking 19562 objects as of 22-Mar-2019
HD Live streaming from Space Station
objects crossing your sky now

SBS 2

Track SBS 2 now!
SBS 2 is classified as:


NORAD ID: 12855
Int'l Code: 1981-096A
Perigee: 35,834.9 km
Apogee: 35,840.5 km
Inclination: 14.1 °
Period: 1,438.3 minutes
Semi major axis: 42208 km
RCS: 7.6855 m2 (large)
Launch date: September 24, 1981
Source: United States (US)
Launch site: AIR FORCE EASTERN TEST RANGE (AFETR)
aabbcc
Your satellite tracking list
Your tracking list is empty




NASA's NSSDC Master Catalog

Two Line Element Set (TLE):
1 12855U 81096A   19080.19910552 -.00000204  00000-0  00000+0 0  9991
2 12855  14.1125 343.4668 0000662  52.3387 125.7991  1.00115169 92079
Source of the keplerian elements: AFSPC